This demonstration page uses our WeatherBlox Daily Observations layout. Learn more.

Hourly Observations for June 21, 2019

Temp ( °F °C ) Dew Point ( °F °C ) Humidity (%) Winds ( mph kmh ) Pressure ( in mb ) Visibility ( mi km ) Precip ( " mm )
12:15 am 00:15 Cloudy with Thunderstorms 71 21.9 65 18.1 79 79 NNW 28 44 29.56 1001 10 16.09344 0 0
12:35 am 00:35 Cloudy with Heavy Thunderstorms 63 17.3 63 17 98 98 WNW 22 35 29.77 1008 1 1.609344 0.75 19.05
12:55 am 00:55 Cloudy with Light Thunderstorms 62 16.5 62 16.5 100 100 ENE 12 19 29.71 1006 7 11.265408 0.93 23.622
1:15 am 01:15 Cloudy with Light Thunderstorms 62 16.5 60 15.6 94 94 ENE 15 24 29.68 1005 10 16.09344 0.01 0.254
1:35 am 01:35 Cloudy with Rain 62 16.5 61 15.9 96 96 E 10 17 29.68 1005 10 16.09344 0.02 0.508
1:55 am 01:55 Cloudy with Rain 62 16.9 61 16.2 96 96 ESE 8 13 29.71 1006 10 16.09344 0.05 1.27
2:15 am 02:15 Cloudy with Light Thunderstorms 63 17 62 16.5 97 97 ESE 18 30 29.59 1002 10 16.09344 0.02 0.508
2:35 am 02:35 Cloudy with Light Thunderstorms 64 17.5 61 16.3 93 93 E 14 22 29.59 1002 10 16.09344 0.03 0.762
2:55 am 02:55 Mostly Cloudy with Heavy Thunderstorms 64 17.8 62 16.5 92 92 ENE 14 22 29.59 1002 10 16.09344 0.04 1.016
3:15 am 03:15 Mostly Cloudy with Light Thunderstorms 64 18 62 16.4 90 90 E 15 24 29.56 1001 10 16.09344 0.02 0.508
3:35 am 03:35 Cloudy 64 18 62 16.5 91 91 NW 16 26 29.62 1003 10 16.09344 0.02 0.508
3:55 am 03:55 Cloudy 65 18.2 62 16.5 90 90 NNE 18 30 29.59 1002 10 16.09344 0.02 0.508
4:15 am 04:15 Cloudy 64 17.7 62 16.7 94 94 NNW 26 43 29.74 1007 5 8.04672 0.13 3.302
4:35 am 04:35 Cloudy with Heavy Thunderstorms 60 15.5 60 15.4 99 99 NE 16 26 29.68 1005 3 4.828032 0.82 20.828
4:55 am 04:55 Cloudy with Thunderstorms 61 16 61 16 100 100 NE 5 7 29.68 1005 10 16.09344 0.88 22.352
5:15 am 05:15 Mostly Cloudy with Light Thunderstorms 61 16.1 61 16.1 100 100 NE 14 22 29.65 1004 10 16.09344 0.03 0.762
5:35 am 05:35 Clear with Nearby Thunderstorms 62 16.8 61 16.3 97 97 ENE 6 9 29.59 1002 10 16.09344 0.03 0.762
5:55 am 05:55 Mostly Cloudy 63 17.1 62 16.5 96 96 SE 9 15 29.62 1003 10 16.09344 0.03 0.762
6:15 am 06:15 Cloudy 63 17 62 16.7 98 98 SE 8 13 29.62 1003 10 16.09344 0 0
6:35 am 06:35 Cloudy 62 16.8 62 16.5 98 98 ESE 8 13 29.62 1003 10 16.09344 0 0
6:55 am 06:55 Mostly Cloudy 63 17 62 16.6 98 98 ESE 10 17 29.62 1003 10 16.09344 0 0
7:15 am 07:15 Sunny 63 17.1 62 16.7 98 98 ESE 13 20 29.62 1003 10 16.09344 0 0
7:35 am 07:35 Sunny 64 17.5 62 16.7 95 95 ESE 14 22 29.62 1003 10 16.09344 0 0
7:55 am 07:55 Sunny 64 17.7 62 16.7 94 94 ESE 14 22 29.62 1003 10 16.09344 0 0
8:15 am 08:15 Sunny 64 17.8 62 16.7 93 93 ESE 13 20 29.62 1003 10 16.09344 0 0
8:35 am 08:35 Sunny 65 18.2 62 16.8 92 92 ESE 10 17 29.62 1003 10 16.09344 0 0
8:55 am 08:55 Sunny 66 19 62 16.9 88 88 SE 8 13 29.62 1003 10 16.09344 0 0
9:15 am 09:15 Sunny 67 19.7 62 16.8 83 83 Calm 29.65 1004 10 16.09344 0 0
9:35 am 09:35 Sunny 69 20.3 62 16.8 80 80 Calm 29.65 1004 10 16.09344 0 0
9:55 am 09:55 Sunny 70 21 63 17 78 78 Calm 29.62 1003 10 16.09344 0 0
10:15 am 10:15 Sunny 71 21.7 63 17.1 75 75 S 3 6 29.62 1003 10 16.09344 0 0
10:35 am 10:35 Sunny 72 22.2 63 17 73 73 Calm 29.62 1003 10 16.09344 0 0
10:55 am 10:55 Sunny 73 22.6 63 17.2 72 72 S 3 6 29.62 1003 10 16.09344 0 0
11:15 am 11:15 Sunny 73 22.9 63 17.4 71 71 Calm 29.62 1003 10 16.09344 0 0
11:35 am 11:35 Sunny 73 23 64 17.9 73 73 Calm 29.62 1003 10 16.09344 0 0
11:55 am 11:55 Sunny 74 23.4 63 17.3 69 69 Calm 29.62 1003 10 16.09344 0 0
2:15 pm 14:15 undefined N/A N/A N/A NNE 5 7 N/A N/A 0 0
2:35 pm 14:35 Mostly Cloudy 78 25.7 65 18.6 65 65 ENE 5 7 29.62 1003 10 16.09344 0 0
2:55 pm 14:55 Mostly Cloudy 78 25.3 66 18.8 67 67 NE 7 11 29.62 1003 10 16.09344 0 0
3:15 pm 15:15 Partly Cloudy 79 26 65 18.2 62 62 NNE 3 6 29.65 1004 10 16.09344 0 0
3:35 pm 15:35 Partly Cloudy 78 25.7 67 19.3 68 68 N 6 9 29.65 1004 10 16.09344 0 0
3:55 pm 15:55 Sunny 80 26.5 66 19.1 64 64 N 7 11 29.62 1003 10 16.09344 0 0
4:15 pm 16:15 Sunny 80 26.5 66 18.8 63 63 NNE 5 7 29.65 1004 10 16.09344 0 0
4:35 pm 16:35 Sunny 80 26.7 65 18.5 61 61 N 3 6 29.65 1004 10 16.09344 0 0
4:55 pm 16:55 Partly Cloudy 81 27.1 65 18.6 60 60 N 6 9 29.65 1004 10 16.09344 0 0
5:15 pm 17:15 Partly Cloudy 80 26.6 64 18 59 59 N 7 11 29.65 1004 10 16.09344 0 0
5:35 pm 17:35 Cloudy 80 26.9 66 18.8 61 61 Calm 29.65 1004 10 16.09344 0 0
5:55 pm 17:55 Partly Cloudy 80 26.4 65 18.3 61 61 N 8 13 29.65 1004 10 16.09344 0 0
6:15 pm 18:15 Partly Cloudy 80 26.9 64 17.8 58 58 N 9 15 29.65 1004 10 16.09344 0 0
6:35 pm 18:35 Partly Cloudy 80 26.6 64 17.8 59 59 NNW 9 15 29.65 1004 10 16.09344 0 0
6:55 pm 18:55 Partly Cloudy 80 26.7 63 17.2 56 56 NNW 17 28 29.65 1004 10 16.09344 0 0
7:15 pm 19:15 Partly Cloudy 78 25.3 63 17.3 61 61 NNW 18 30 29.65 1004 10 16.09344 0 0
7:35 pm 19:35 Partly Cloudy 75 24 58 14.5 55 55 N 15 24 29.71 1006 10 16.09344 0 0
7:55 pm 19:55 Mostly Cloudy 74 23.1 56 13.1 53 53 NNW 14 22 29.71 1006 10 16.09344 0 0
8:15 pm 20:15 Mostly Cloudy 73 22.5 52 11 48 48 N 14 22 29.71 1006 10 16.09344 0 0
8:35 pm 20:35 Partly Cloudy 71 21.9 52 11.1 50 50 N 13 20 29.71 1006 10 16.09344 0 0
8:55 pm 20:55 Sunny 70 21.2 52 11.1 53 53 N 10 17 29.74 1007 10 16.09344 0 0
9:15 pm 21:15 Clear 69 20.6 53 11.5 56 56 N 10 17 29.74 1007 10 16.09344 0 0
9:35 pm 21:35 Partly Cloudy 69 20.4 52 11.3 56 56 N 14 22 29.77 1008 10 16.09344 0 0
9:55 pm 21:55 Mostly Cloudy 68 19.8 53 11.5 59 59 N 12 19 29.77 1008 10 16.09344 0 0
10:15 pm 22:15 Cloudy 67 19.5 53 11.7 61 61 N 10 17 29.8 1009 10 16.09344 0 0
10:35 pm 22:35 Partly Cloudy 66 18.8 53 11.6 63 63 N 12 19 29.8 1009 10 16.09344 0 0
10:55 pm 22:55 Clear 65 18.2 52 11.3 64 64 N 12 19 29.83 1010 10 16.09344 0 0
11:15 pm 23:15 Clear 64 18 51 10.5 62 62 N 12 19 29.83 1010 10 16.09344 0 0
11:35 pm 23:35 Clear 64 17.8 49 9.7 59 59 NNW 13 20 29.85 1011 10 16.09344 0 0
11:55 pm 23:55 Clear 64 17.8 49 9.2 57 57 N 12 19 29.85 1011 10 16.09344 0 0

Powered by AerisWeather